GFSMW_700_spd_189.txt.gz
Wind_Speed
26 25 27 31 34 36 30 28 26 30 31 33 34 33 30 29 31 32 33 33 33 34 33 29 30 35 34 35 35 35 38 37 39 39 42 41 43 43 42 45 43 41 40
27 27 30 33 34 30 31 30 29 30 29 32 35 36 30 28 30 31 32 29 28 28 29 30 35 35 35 36 39 38 40 44 45 50 48 49 43 45 44 45 44 43 43
19 23 29 30 23 21 23 31 33 28 28 32 33 27 29 29 30 30 30 30 29 31 32 32 34 36 38 37 39 41 44 46 50 42 52 51 54 48 45 45 44 43 41
19 19 21 20 18 19 23 26 28 25 23 22 23 26 29 29 28 28 31 33 33 34 36 37 38 37 35 41 41 41 49 54 53 41 48 53 49 53 49 39 39 40 41
10 8 8 14 18 21 17 20 23 24 23 24 25 26 31 32 32 30 32 34 36 37 39 39 39 40 41 36 43 48 50 43 39 40 46 48 41 40 38 43 46 48 47
4 2 6 8 11 13 15 19 22 24 26 28 30 31 31 32 35 36 36 38 39 42 44 45 44 39 36 39 40 46 41 31 36 34 38 27 14 11 20 30 42 45 37
12 19 20 8 7 9 11 16 20 24 26 28 30 31 33 33 35 36 40 40 43 44 43 44 41 40 39 42 42 28 31 28 6 14 23 24 23 27 34 30 33 35 40
15 10 15 16 15 14 21 23 24 26 28 29 29 30 31 32 35 37 33 38 37 45 42 42 41 39 44 40 27 17 25 14 16 21 24 23 26 29 36 37 34 32 29
12 16 19 18 19 24 23 23 27 26 26 25 22 26 29 33 34 36 39 35 39 39 38 38 43 45 25 37 32 24 20 10 11 11 14 15 15 16 16 19 22 37 47
14 17 18 22 27 23 19 23 25 27 25 21 25 29 30 28 31 34 32 39 36 33 36 41 38 36 34 21 19 11 6 7 6 8 9 9 10 11 12 14 16 17 18
13 19 22 22 28 27 29 24 24 25 23 25 28 30 30 31 31 31 30 29 32 29 29 25 28 23 18 16 13 8 7 9 9 8 8 9 8 8 9 10 11 12 15
21 24 22 25 29 32 31 29 25 26 28 31 32 30 31 30 29 26 24 23 24 24 23 22 20 18 16 17 12 11 11 9 8 6 5 5 5 5 5 6 6 7 10
27 24 25 23 30 32 32 31 29 27 32 33 33 32 32 30 27 25 25 24 24 23 21 20 20 19 18 16 13 13 10 7 6 6 6 4 4 4 6 6 9 12 12
35 33 27 29 29 32 35 38 38 33 32 34 32 30 31 34 27 27 26 26 26 24 22 23 21 20 19 17 14 12 10 9 9 8 6 4 4 7 10 13 14 15 17
34 33 34 38 42 39 38 39 41 43 34 33 25 34 34 36 35 30 28 26 25 24 23 22 18 16 17 16 15 15 14 14 11 7 8 8 9 11 14 15 17 18 21
35 39 37 38 39 40 40 40 39 42 40 46 38 41 30 36 37 32 28 28 25 25 21 19 17 18 17 18 18 16 15 15 11 11 13 12 14 17 18 20 22 23 24
34 36 39 38 41 42 41 41 38 39 37 33 26 35 34 34 35 31 26 26 25 23 22 19 19 19 19 18 17 16 16 16 12 14 16 16 18 21 23 25 26 25 24
27 30 35 37 37 38 38 38 39 42 41 46 33 36 34 29 26 22 26 29 22 22 23 21 22 21 20 19 18 17 16 15 13 16 19 19 22 24 26 28 28 28 26
34 36 33 35 39 41 41 44 46 47 45 39 36 43 49 52 35 30 29 29 30 24 22 22 21 22 21 21 19 18 18 17 16 17 20 23 26 30 31 31 31 28 24
31 33 35 36 38 39 42 42 40 43 44 46 45 46 51 52 52 43 38 30 25 21 22 23 23 21 22 21 20 19 19 19 19 22 23 27 32 32 33 32 31 26 23
43 45 46 47 46 47 47 47 46 45 40 41 41 40 42 44 43 41 39 36 30 27 28 24 21 20 20 19 20 21 22 21 20 23 24 29 31 31 30 28 24 22 21
53 54 54 54 53 49 44 49 50 48 42 34 37 34 36 35 35 36 45 42 37 33 32 28 22 19 16 16 20 23 25 22 21 23 26 28 29 26 23 20 18 18 18
49 48 44 44 45 44 36 37 44 42 38 43 34 37 38 35 37 39 45 38 34 38 37 34 27 21 17 19 22 24 24 22 23 23 25 26 20 17 16 15 17 17 18
43 43 40 40 45 47 44 40 33 43 40 44 35 32 39 40 37 42 44 43 37 41 42 38 31 24 23 23 23 23 24 23 23 23 24 20 16 16 16 16 17 18 18
45 46 47 48 50 48 48 43 38 38 46 47 43 38 35 41 39 38 44 44 43 41 42 38 32 28 26 24 23 25 24 23 24 23 21 17 17 17 18 18 19 18 16
41 41 43 46 50 50 51 45 38 38 40 45 50 48 41 36 40 37 39 39 42 44 48 40 36 34 34 25 27 27 25 23 25 22 19 19 19 18 20 21 20 17 15

GFSMW_700_spd_195.txt.gz
Wind_Speed
46 44 36 31 36 27 24 23 19 21 20 15 15 20 19 18 18 19 19 20 22 25 28 33 34 34 31 33 33 33 34 31 29 33 33 38 38 42 43 41 44 41 42
43 38 29 18 24 24 21 20 18 19 18 16 13 13 14 17 19 19 20 19 20 23 27 28 31 33 34 34 34 33 35 37 38 37 34 43 44 38 38 47 39 47 49
24 13 9 8 9 12 14 14 12 14 13 15 15 16 17 17 17 19 18 18 18 21 24 27 31 33 32 31 31 32 35 38 40 41 36 40 33 46 35 40 40 40 52
8 8 10 8 8 10 12 12 12 13 15 16 15 15 14 17 18 17 20 21 22 23 26 28 31 33 34 33 33 34 36 36 42 52 49 49 41 40 37 43 41 48 44
8 8 11 8 5 6 9 10 10 8 8 9 12 16 17 18 20 22 23 24 26 28 30 31 33 32 35 35 36 38 37 38 41 42 39 47 43 56 42 44 41 39 31
14 15 14 6 4 5 6 6 3 2 4 8 13 16 19 21 24 26 28 28 31 32 32 33 35 36 39 40 40 38 42 41 44 38 45 50 49 40 32 25 27 27 26
17 16 12 7 5 5 5 6 5 6 11 15 18 20 21 23 26 28 29 33 33 33 30 34 35 37 40 45 44 44 41 40 46 48 45 42 26 21 24 28 22 24 23
22 15 9 10 7 7 8 8 9 12 14 18 19 21 24 27 29 30 31 36 36 34 33 33 34 34 35 37 39 40 42 41 35 38 31 29 29 26 28 23 21 26 25
19 15 13 15 10 10 12 12 17 20 22 19 19 22 24 27 27 29 29 27 31 31 33 36 39 35 34 35 40 37 41 36 37 35 38 32 29 24 24 28 27 28 29
19 18 18 16 10 11 13 18 24 27 26 22 20 23 28 31 29 30 31 31 30 30 33 30 38 35 38 33 35 40 36 35 40 40 34 26 19 27 26 27 26 26 24
20 20 21 18 15 16 21 26 28 28 26 23 22 25 28 32 34 34 35 34 34 35 31 30 31 34 35 36 36 37 36 41 37 29 23 21 22 23 25 26 23 22 21
20 19 17 13 20 24 26 29 32 33 35 32 30 32 31 31 32 35 35 36 37 35 33 31 32 31 33 34 34 34 37 37 33 27 23 23 24 24 25 26 24 21 19
16 14 17 21 26 28 29 29 30 33 33 31 30 30 35 37 38 37 38 39 37 35 32 31 32 33 33 35 36 39 38 31 30 26 27 29 27 25 24 24 21 18 17
18 21 25 28 30 32 31 33 32 31 31 32 32 33 29 31 35 38 39 36 35 33 33 33 35 35 36 39 39 34 31 30 29 27 28 26 25 24 23 22 19 19 18
23 28 29 30 31 33 32 29 31 31 32 37 40 36 35 35 33 36 39 37 37 41 35 38 37 36 40 37 32 29 29 29 27 27 26 25 24 23 22 23 21 18 16
28 31 29 32 34 34 35 35 35 35 38 39 38 39 37 35 33 31 29 33 34 34 39 43 42 44 38 32 28 28 29 29 30 32 26 26 26 24 24 20 18 15 16
31 37 38 37 35 36 37 38 39 38 38 40 43 45 46 42 37 29 36 32 37 33 29 33 29 35 32 33 35 32 32 33 33 29 28 29 26 25 23 23 20 21 20
38 36 38 37 37 38 39 38 38 39 40 42 42 43 44 42 41 43 40 41 39 37 34 25 28 36 36 33 32 32 35 37 34 32 31 28 26 25 27 24 24 23 24
36 34 31 30 30 32 33 34 35 37 38 39 43 45 45 45 42 40 38 38 37 39 42 36 23 37 40 36 31 37 37 33 33 29 30 28 27 27 28 24 25 25 26
31 26 26 28 27 27 32 36 40 44 46 48 49 49 47 47 49 47 45 41 38 42 41 34 28 38 39 35 37 39 35 35 32 30 30 30 28 29 26 26 26 24 26
29 27 29 33 35 39 44 46 47 47 45 41 41 40 39 40 43 44 44 44 42 39 36 43 43 47 41 40 37 44 39 36 33 32 30 30 29 29 26 25 23 23 24
26 30 32 36 40 42 42 42 42 39 39 39 38 37 37 38 37 42 44 41 40 40 40 43 51 42 40 48 45 40 38 37 34 32 30 31 31 27 25 22 20 21 17
29 33 38 41 41 40 40 40 38 38 40 43 43 42 39 37 37 39 43 45 44 42 40 42 47 45 50 53 51 51 44 41 37 33 31 32 29 26 24 19 19 17 14
35 37 39 40 39 37 36 38 38 39 41 42 44 44 41 40 39 39 39 46 51 48 46 45 49 48 49 47 61 45 47 43 41 36 36 35 29 27 22 19 19 16 13
33 34 33 34 36 37 38 39 40 42 42 44 44 43 39 39 39 41 43 40 41 52 50 44 37 43 41 42 50 48 45 42 41 36 37 35 31 24 20 20 21 17 16
30 29 30 35 37 37 38 38 39 40 42 43 44 43 43 40 39 41 43 42 40 39 46 47 41 39 40 34 50 46 45 44 36 34 35 32 28 23 22 22 22 21 17

GFSMW_700_spd_201.txt.gz
Wind_Speed
24 30 31 36 39 41 39 37 28 28 25 21 20 18 17 18 22 23 19 17 17 18 19 21 25 28 31 32 33 33 33 32 32 34 33 35 35 32 33 33 38 27 26
27 28 35 34 35 29 31 36 32 27 25 23 22 21 18 18 22 25 23 20 20 20 19 20 21 24 27 28 29 30 31 33 34 34 33 38 40 35 33 40 28 35 21
22 32 29 21 16 16 17 22 23 23 25 26 24 23 21 21 23 24 24 21 20 22 20 17 17 18 22 24 26 26 29 30 32 32 37 45 36 39 38 37 45 39 42
25 26 16 12 13 13 14 21 21 24 25 25 23 24 24 21 20 22 24 23 26 22 22 20 20 18 21 25 28 31 32 32 31 32 33 33 32 32 35 36 43 45 42
19 21 14 11 12 13 16 19 22 22 23 24 25 25 26 25 26 27 29 28 27 25 24 23 22 24 25 26 30 33 33 35 34 35 33 31 34 37 34 41 33 38 41
20 20 17 16 12 16 17 19 20 21 20 22 23 25 25 26 26 27 27 27 27 26 25 25 26 29 29 33 30 30 34 36 36 39 38 36 36 38 37 29 34 36 29
23 21 20 19 14 15 17 19 19 19 18 18 17 17 18 19 21 22 23 28 25 22 25 29 30 31 30 33 32 31 31 34 33 32 36 40 35 32 35 30 33 22 28
20 21 25 24 22 18 18 18 18 20 20 16 12 10 12 16 16 16 18 18 18 20 23 26 28 27 27 28 30 29 32 31 36 31 34 35 31 33 36 31 37 32 30
23 24 29 27 26 22 22 23 24 23 20 18 16 14 15 17 18 18 17 18 19 21 23 25 27 29 31 32 32 33 33 33 33 37 36 35 34 34 33 36 34 36 37
23 25 31 28 29 26 27 26 25 23 20 17 15 12 12 15 16 16 17 18 19 21 24 26 27 29 30 31 33 34 33 34 36 36 35 33 31 38 33 30 35 37 35
23 28 32 32 29 30 29 27 24 20 17 15 14 15 16 15 16 17 19 20 22 24 26 27 29 32 35 36 36 36 36 35 34 34 35 31 31 29 28 37 34 36 31
26 33 34 33 32 33 30 26 21 19 18 18 17 17 17 17 17 18 21 25 26 28 28 29 32 35 37 38 38 37 36 34 34 32 31 35 32 32 32 35 39 33 28
33 37 36 34 33 31 27 22 20 18 18 19 20 21 21 22 23 26 27 30 32 32 33 35 38 38 38 40 40 39 36 35 35 37 33 32 33 38 36 39 33 31 27
37 38 38 35 32 30 26 25 21 20 20 22 22 24 24 25 26 29 30 34 36 37 37 37 39 39 37 38 43 41 36 33 33 32 31 36 37 39 38 34 32 37 30
38 41 38 35 32 29 28 27 25 24 22 23 25 26 26 30 33 34 35 36 37 39 42 42 40 38 37 36 32 31 35 33 26 28 31 38 36 29 29 28 29 31 29
39 44 42 38 37 34 33 29 24 24 25 27 28 29 30 33 35 37 38 38 39 40 41 41 38 36 35 35 30 30 32 36 30 32 37 37 29 28 30 30 29 29 28
43 44 39 35 32 30 27 26 27 27 25 26 28 30 32 33 35 37 40 42 44 44 43 40 39 36 35 36 36 39 40 38 36 38 40 33 30 34 30 30 30 30 30
45 46 39 34 30 31 29 30 28 25 26 28 32 35 39 42 46 47 48 49 48 45 42 40 40 39 37 38 40 39 37 39 42 43 39 37 37 36 29 29 31 30 29
45 44 44 50 48 44 39 34 30 33 35 38 40 43 44 43 43 45 46 44 42 40 38 37 36 37 37 39 39 43 36 41 43 44 47 48 38 38 34 31 31 32 31
49 52 56 51 40 34 33 32 34 35 37 41 38 34 38 42 43 41 41 40 39 38 38 38 37 38 37 37 43 44 46 46 42 44 42 46 39 35 33 30 30 35 33
51 44 33 32 31 30 31 33 33 30 29 30 34 38 38 38 39 40 38 37 38 39 38 40 41 42 39 37 39 41 46 50 48 46 40 44 36 40 36 30 36 33 34
44 39 37 25 27 31 31 26 25 29 32 35 36 36 37 37 37 37 38 38 39 39 39 39 39 37 36 37 37 40 44 44 47 60 39 37 45 42 31 32 35 35 36
36 34 28 29 28 23 23 26 28 32 33 34 34 35 35 36 37 37 38 39 39 40 39 38 38 38 37 36 38 42 42 43 45 51 59 33 42 41 35 35 35 37 36
30 28 26 20 22 24 26 30 31 32 33 33 33 34 35 36 37 37 37 36 36 35 35 37 40 40 37 39 38 39 37 36 41 43 41 39 38 42 37 37 37 38 36
24 20 19 21 25 27 29 31 32 32 33 34 35 36 36 35 33 33 34 35 36 37 39 40 41 42 40 36 36 38 34 34 35 33 30 42 34 42 43 42 39 38 37
18 19 20 23 26 29 30 31 33 34 35 35 35 34 33 32 33 35 36 39 41 42 42 42 45 44 40 36 36 38 35 35 34 33 36 42 33 44 47 41 39 40 36

GFSMW_700_spd_204.txt.gz
Wind_Speed
20 26 27 30 32 34 39 40 38 35 36 35 35 31 26 25 24 26 27 25 21 21 21 24 28 29 32 33 34 36 37 35 34 34 35 32 32 31 31 31 33 30 31
22 22 28 27 33 37 37 37 41 42 37 38 36 31 27 27 26 26 29 29 25 24 23 24 25 27 29 31 31 32 33 33 32 33 32 36 34 35 33 33 38 38 32
21 22 22 24 26 27 22 23 26 30 37 40 37 32 31 29 28 27 30 31 29 27 25 26 26 26 26 27 28 28 30 29 28 31 32 35 36 35 33 31 30 31 38
22 21 21 23 23 22 19 21 22 21 37 39 35 34 32 30 28 26 28 31 31 29 29 29 27 27 25 25 24 26 28 30 32 33 34 33 36 34 35 32 31 28 29
20 21 21 20 20 20 20 19 18 22 29 34 35 34 34 33 29 27 29 31 32 32 33 31 28 29 28 27 28 28 29 30 34 37 37 39 39 41 39 35 35 33 35
18 20 20 19 19 20 20 18 22 23 27 30 31 32 31 30 30 29 29 29 31 34 35 32 32 31 32 31 30 32 31 33 31 34 37 38 39 40 43 42 39 37 35
20 23 18 21 23 22 22 22 23 24 25 27 28 29 28 28 29 29 28 29 31 34 35 34 31 30 31 29 30 32 32 30 30 32 34 36 37 38 39 38 36 38 33
23 20 22 23 27 23 22 25 26 26 26 26 27 28 29 29 29 30 28 29 31 32 33 31 28 27 27 28 27 28 28 29 30 33 34 37 40 40 41 40 37 38 39
20 22 25 24 27 28 26 24 25 27 27 27 26 24 22 22 24 26 27 28 28 25 23 24 25 26 27 28 29 30 32 32 32 34 36 36 38 42 42 41 34 38 39
17 18 22 27 27 32 31 28 27 27 27 27 25 23 21 21 21 22 23 22 21 20 21 21 21 22 24 26 27 28 30 31 33 34 35 38 39 39 40 38 38 39 40
18 22 23 28 30 32 32 30 30 31 31 28 24 20 18 18 19 20 21 22 22 23 22 22 23 24 25 26 27 29 30 32 33 33 36 39 39 38 36 37 37 39 36
22 23 24 27 31 34 34 33 34 33 30 26 23 22 22 22 23 25 25 23 22 24 25 25 24 26 28 30 30 31 33 34 33 34 35 35 37 35 35 38 35 37 36
18 25 27 31 35 36 35 36 36 32 29 28 28 26 25 23 21 21 21 22 24 26 27 27 28 28 29 31 32 33 34 34 35 32 33 35 38 41 37 34 37 43 40
27 29 27 29 38 38 39 39 37 35 33 29 26 24 23 22 21 22 23 24 27 28 29 29 30 32 32 33 35 35 35 34 33 31 33 34 35 35 37 34 38 45 36
22 26 31 32 40 42 42 39 37 33 30 28 27 27 27 26 25 25 28 30 31 29 29 32 35 34 37 36 34 33 34 35 33 34 37 35 37 35 36 35 30 29 33
26 25 31 38 42 43 44 42 38 35 34 33 32 32 30 29 30 31 31 31 30 31 33 38 44 45 45 41 37 36 33 34 40 40 41 43 40 40 41 41 31 31 35
35 31 36 41 46 46 45 43 40 40 37 36 35 34 33 32 32 32 31 33 39 45 49 44 43 44 42 40 38 39 39 40 41 44 46 42 40 44 45 40 34 36 39
39 34 39 43 50 50 50 45 42 41 39 39 36 33 28 26 31 40 43 40 35 34 37 41 41 40 39 38 38 40 42 43 46 47 48 42 42 42 39 40 44 47 43
36 36 40 46 53 53 50 50 47 42 46 41 31 33 40 40 39 37 32 32 36 38 40 41 41 43 41 40 40 41 44 46 47 47 46 48 46 42 38 42 49 46 39
36 38 42 47 50 45 44 46 45 49 43 44 43 36 35 35 30 31 34 36 40 43 44 42 40 38 38 38 40 44 47 44 43 45 43 48 52 50 39 38 45 46 41
37 40 43 47 50 53 52 51 44 40 41 38 34 32 29 29 30 34 37 38 39 40 39 39 38 39 39 41 41 41 42 42 42 44 43 42 44 50 50 39 41 39 36
35 43 49 52 50 50 42 37 33 28 31 30 25 26 28 31 34 35 36 37 38 39 40 39 40 40 40 39 37 37 38 40 43 41 42 44 42 43 44 38 40 37 36
36 46 49 51 51 43 41 41 32 26 23 23 26 30 31 32 33 35 37 38 40 40 40 40 39 37 36 35 34 34 35 37 39 41 41 41 42 38 34 32 38 41 43
38 46 46 45 42 35 32 27 23 21 24 26 28 31 32 33 35 36 37 38 38 37 35 36 36 37 36 37 36 33 34 37 41 40 40 40 37 39 32 34 29 39 42
37 37 34 31 26 29 26 21 22 24 26 28 30 33 35 36 36 36 36 35 34 35 36 37 39 40 39 39 39 39 37 38 40 41 41 39 34 33 30 32 27 38 44
37 35 27 24 23 20 19 22 24 27 29 31 33 36 37 37 37 36 34 34 35 38 39 38 40 40 40 41 42 41 38 39 40 42 41 37 37 34 34 32 22 40 44

GFSMW_700_spd_207.txt.gz
Wind_Speed
23 22 24 24 27 27 30 36 39 45 39 40 39 37 39 35 32 30 29 31 28 25 24 28 31 32 31 31 31 33 33 34 32 35 35 36 34 33 30 31 32 31 31
23 23 24 27 23 25 31 37 42 43 45 39 40 42 42 38 33 33 30 30 30 29 27 24 25 26 27 27 29 30 31 32 33 33 34 35 34 33 32 33 31 33 31
24 22 22 27 23 24 26 30 29 30 35 35 39 45 44 43 36 34 32 28 32 32 30 26 24 24 25 27 28 28 29 29 28 29 29 32 34 33 32 31 33 34 32
20 20 21 26 26 25 25 25 23 26 30 29 39 42 41 41 36 34 32 31 32 33 33 30 27 27 27 28 27 26 27 27 26 28 30 33 35 36 38 37 36 35 34
17 16 21 28 26 25 24 25 23 25 27 27 31 35 38 40 38 36 34 33 33 35 34 33 31 29 29 29 29 28 28 28 27 27 28 32 32 34 37 39 39 36 37
16 18 26 24 28 24 27 27 25 24 23 23 28 34 37 40 38 37 37 35 32 33 35 35 33 33 33 31 30 31 32 32 33 32 33 33 34 34 35 38 39 39 39
18 23 26 25 25 26 26 27 24 23 20 21 28 35 37 37 37 37 36 33 31 32 32 33 35 35 33 31 33 33 31 32 33 32 32 30 32 34 36 39 40 43 43
24 23 25 27 25 26 23 27 26 25 26 26 27 31 33 34 33 33 33 33 32 32 32 32 33 33 32 33 30 29 28 29 29 30 31 33 33 36 37 40 41 42 43
25 23 25 26 23 26 23 28 27 27 26 26 26 28 30 31 31 31 30 31 31 32 32 30 29 31 29 27 26 27 27 28 30 31 33 36 36 37 39 39 40 42 45
21 23 23 22 28 27 25 26 28 28 29 29 29 30 31 31 30 29 28 29 29 30 29 27 26 26 26 26 28 28 29 30 30 31 32 34 36 38 38 39 41 42 41
23 21 20 25 29 24 28 26 31 31 31 31 31 29 27 26 25 26 27 28 27 27 26 27 27 26 27 28 28 28 28 29 29 31 31 33 34 36 37 39 40 40 41
22 20 22 27 28 29 30 28 30 32 31 31 31 30 29 28 28 28 28 28 27 28 28 28 28 29 27 27 28 29 28 29 30 31 32 31 38 38 38 37 39 40 40
20 20 29 29 29 33 31 30 31 33 34 35 34 32 29 27 27 27 27 28 29 30 29 29 29 27 26 25 26 28 29 31 33 36 37 40 38 35 35 35 38 42 43
26 22 22 31 28 33 32 31 34 36 39 38 36 33 31 30 30 30 29 29 28 29 30 30 30 30 30 33 34 31 35 38 38 36 34 34 35 34 33 35 37 39 40
25 30 26 28 31 32 34 35 37 39 42 41 38 35 33 31 30 30 29 30 31 31 38 47 42 33 32 36 42 41 40 36 33 32 32 33 36 38 40 39 40 39 41
27 30 37 32 31 32 33 35 38 42 44 44 42 39 37 36 35 35 36 38 40 38 33 32 32 37 42 44 44 41 37 36 36 36 38 39 42 43 45 45 42 45 43
29 36 39 36 34 32 34 38 42 46 47 47 44 42 41 40 40 40 37 35 35 34 33 36 44 46 35 33 35 37 38 39 39 40 40 42 45 50 48 51 48 45 46
39 36 42 40 33 34 38 42 47 50 50 49 47 44 42 40 39 37 36 34 32 37 45 41 33 32 34 36 37 39 40 41 41 43 47 49 51 50 51 52 51 52 46
36 42 46 40 38 38 42 45 49 49 50 46 43 44 44 43 41 39 42 42 47 38 34 32 33 38 37 38 40 42 44 44 45 48 50 50 50 48 46 47 51 54 47
45 51 45 40 41 39 41 42 51 52 49 46 48 50 46 47 53 47 47 34 33 34 34 35 37 38 39 40 42 44 46 47 47 47 46 46 48 49 48 46 45 46 42
42 41 41 38 38 36 38 42 48 50 47 49 39 32 32 37 38 34 29 28 31 33 35 36 37 38 41 41 42 43 45 46 45 46 45 44 43 44 44 46 42 42 41
35 32 35 32 36 37 39 43 47 48 48 49 45 43 37 35 32 29 27 30 33 34 35 37 38 40 42 43 43 43 42 41 41 40 39 40 40 41 42 44 42 36 31
33 32 31 32 36 40 44 46 47 45 39 37 38 32 25 24 26 29 30 32 34 36 39 41 42 43 43 43 40 37 37 38 39 38 38 40 38 39 41 40 36 30 28
29 30 28 32 39 44 48 48 44 42 40 30 27 26 25 26 28 30 32 34 37 39 41 42 42 42 39 38 39 41 41 39 40 40 40 42 41 41 40 37 32 27 28
27 27 27 35 42 46 48 46 41 27 24 23 23 24 26 28 30 32 35 38 40 41 41 40 40 40 39 40 40 41 41 42 41 41 41 42 43 44 41 37 33 28 29
25 25 29 40 43 42 40 33 23 19 20 22 24 26 28 31 34 37 40 41 41 40 41 41 43 43 43 43 44 45 46 45 46 45 43 44 44 45 41 38 34 32 29